Flag for Tajikistan Weather past 2 weeks in Dushanbe, Tajikistan

Now
77 °F

Broken clouds.


Feels Like: 78 °F
Forecast: 73 / 94 °F
Wind: 1 mph from South

Location: Dushanbe Airport

Current Time: Jul 6, 2015 at 6:41:01 AM

Latest Report: Jul 6, 2015 at 6:00 AM


Visibility: 3 mi

Pressure: 29.77 "Hg (27.06 "Hg at 832m altitude)

Humidity: 39%

Dew point: 50 °F

Location of DushanbeLocation

Historic Weather in Dushanbe — Graph

°F

Dushanbe temperature yesterday

Maximum temperature yesterday: 104 °F (at 2:00 PM)
Minimum temperature yesterday: 77 °F (at 5:00 AM)
Average temperature yesterday: 90 °F

Past Weeks' High & Low Weather Summary

 TemperatureHumidityPressure
High106 °F (Jul 4, 3:30 PM)68% (Jun 26, 3:00 AM)29.89 "Hg (Jun 26, 3:00 AM)
Low63 °F (Jun 24, 5:30 AM)11% (Jul 2, 2:30 PM)29.56 "Hg (Jun 22, 4:00 PM)
Average84 °F34%29.72 "Hg
* Reported Jun 21 5:00 AM — Jul 6 5:00 AM, Dushanbe, Weather by CustomWeather, © 2015

Note: Actual official high and low records may vary slightly from our data, if they occured in-between our weather recording intervals... More about our weather records

Advertising

Dushanbe weather history for previous 24 hours

 ConditionsComfort  
Time TempWeatherWind HumidityBarometerVisibility
5:00 AM
Mon, Jul 6
79 °FClear.1 mph37%29.74 "HgN/A
4:30 AM79 °FPassing clouds.3 mph37%29.74 "HgN/A
4:00 AM81 °FPassing clouds.1 mph34%29.71 "HgN/A
3:30 AM81 °FPassing clouds.6 mph34%29.71 "HgN/A
3:00 AM81 °FPassing clouds.8 mph34%29.71 "HgN/A
2:30 AM84 °FPassing clouds.13 mph29%29.68 "HgN/A
2:00 AM86 °FPassing clouds.13 mph25%29.68 "HgN/A
1:30 AM86 °FPassing clouds.15 mph27%29.68 "HgN/A
1:00 AM86 °FPassing clouds.13 mph29%29.65 "HgN/A
12:30 AM82 °FPassing clouds.10 mph32%29.65 "HgN/A
12:00 AM84 °FPassing clouds.10 mph33%29.65 "HgN/A
11:30 PM
Sun, Jul 5
84 °FPassing clouds.8 mph33%29.65 "HgN/A
11:00 PM86 °FPassing clouds.8 mph31%29.65 "HgN/A
10:30 PM86 °FPassing clouds.8 mph31%29.65 "HgN/A
10:00 PM86 °FPassing clouds.10 mph31%29.65 "HgN/A
9:30 PM86 °FPassing clouds.8 mph33%29.65 "HgN/A
9:00 PM88 °FPassing clouds.3 mph33%29.65 "HgN/A
8:30 PM91 °FPassing clouds.8 mph28%29.65 "HgN/A
8:00 PM91 °FPassing clouds.6 mph30%29.65 "HgN/A
7:30 PM93 °FPassing clouds.6 mph30%29.62 "Hg5 mi
7:00 PM99 °FClear.No wind21%29.62 "HgN/A
6:30 PM99 °FPassing clouds.3 mph24%29.62 "HgN/A
6:00 PM100 °FPassing clouds.6 mph24%29.62 "HgN/A
5:30 PM100 °FPassing clouds.6 mph20%29.62 "HgN/A
5:00 PM102 °FPassing clouds.3 mph20%29.65 "HgN/A
4:30 PM102 °FPassing clouds.6 mph23%29.65 "HgN/A
4:00 PM102 °FPassing clouds.8 mph20%29.65 "HgN/A
3:30 PM102 °FPassing clouds.8 mph18%29.65 "HgN/A
3:00 PM104 °FPassing clouds.3 mph16%29.65 "HgN/A
2:30 PM104 °FPassing clouds.6 mph16%29.68 "HgN/A
2:00 PM104 °FPassing clouds.3 mph12%29.68 "HgN/A
1:30 PM102 °FPassing clouds.6 mph14%29.68 "HgN/A
1:00 PM102 °FClear.6 mph17%29.71 "HgN/A
12:30 PM100 °FPassing clouds.1 mph17%29.71 "HgN/A
12:00 PM100 °FPassing clouds.3 mph21%29.71 "HgN/A
11:30 AM100 °FClear.1 mph18%29.71 "HgN/A
11:00 AM99 °FClear.3 mph21%29.74 "HgN/A
10:30 AM97 °FClear.3 mph23%29.74 "HgN/A
10:00 AM95 °FClear.6 mph23%29.74 "HgN/A
9:30 AM91 °FClear.3 mph26%29.74 "HgN/A
8:30 AM88 °FClear.3 mph31%29.74 "HgN/A
8:00 AM88 °FClear.3 mph29%29.74 "HgN/A
7:30 AM84 °FClear.6 mph31%29.74 "HgN/A
7:00 AM81 °FClear.6 mph39%29.74 "HgN/A
6:30 AM77 °FClear.3 mph44%29.74 "HgN/A
6:00 AM79 °FClear.3 mph39%29.74 "HgN/A
Weather by CustomWeather, © 2015

See weather overviewHow to use our weather pages